Weather in Hirnytske

Ukraine / Dnipropetrovsk Region     47°43′03″N   34°09′05″E
temp.,
°C
wind,
m/s
gust,
m/s
humid.,
%
clouds,
%
prec.,
mm/h
press.,
hPa
HPBL,
m
22 january, fri
fri2223:00−1s479522 0.0 102395
02:00−1s479619 0.0 1023109
05:000ssw479616 0.0 1022121
08:00+2ssw5139742 0.0 1021301
11:00+4s6139997 0.0 1021388
14:00+5s6129895 0.0 1020433
17:00+4ssw61393100 0.0 1019307
20:00+4s5119599 0.0 1019261
23 january, sat
sat2323:00+4s61296100 0.0 1018309
02:00+4s61295100 0.0 1017338
05:00+4s61292100 0.0 1017321
08:00+4s61290100 0.0 1017321
11:00+5s6138799 0.0 1016400
14:00+6s61286100 0.0 1015405
17:00+5sse51194100 0.0 1015242
20:00+6s61392100 0.0 1015320
24 january, sun
sun2423:00+4sse61291100 0.0 1015279
02:00+4sse5128893 0.0 1015276
05:00+4sse61286100 0.0 1014242
08:00+5se71484100 0.0 1013290
11:00+7se81479100 0.0 1012446
14:00+9sse91468100 0.0 1010600
17:00+7sse7128387 0.1 1010316
20:00+6sse7139494 1.0 1010477
25 january, mon
mon2523:00+7sse61389100 0.1 1010467
02:00+7sse71486100 0.1 1010534
05:00+6s6138884 0.0 1009423
08:00+5sse5118881 0.0 1010281
11:00+9s7137393 0.0 1009585
14:00+10sse7137484 0.3 1007757
17:00+8se81674100 0.1 1006593
20:00+7se121982100 0.9 1003741
26 january, tue
tue2623:00+8sse111887100 2.1 1001907
02:00+8s81587100 9.8 1001617
05:00+5s8176912 0.2 1001730
08:00+6s9168053 0.2 10021045
11:00+5sw101562100 0.1 10031317
14:00+5sw11165283 0.1 10051927
17:00+3wsw7145757 0.0 1008898
20:00+2sw6136232 0.0 1011535